Regional Weather Roundup
Issued by NWS

Home | Current Version | Previous Version | Graphics & Text | Print | Product List | Glossary On
Versions: 1 2 3 4 5 6 7 8 9 10 11 12 13 14 15 16 17 18 19 20 21 22 23 24 25 26 27 28 29 30 31 32 33 34 35 36 37 38 39 40 41 42 43 44 45 46 47 48 49 50
000
ASUS43 KLOT 242103
RWRIL

ILLINOIS REGIONAL WEATHER ROUNDUP
NATIONAL WEATHER SERVICE CHICAGO/ROMEOVILLE IL
400 PM CDT TUE MAY 24 2016

NOTE: "FAIR" INDICATES FEW OR NO CLOUDS BELOW 12,000 FEET WITH NO
SIGNIFICANT WEATHER AND/OR OBSTRUCTIONS TO VISIBILITY.

* THESE STATIONS ARE NOT UNDER NWS QUALITY CONTROL. THEY ALSO MAY NOT
  REPORT WEATHER SUCH AS PRECIPITATION OR FOG.

ILZ001-002-007-009-015-016-024-242200-
NORTHWEST ILLINOIS

CITY           SKY/WX    TMP DP  RH WIND       PRES   REMARKS
MOLINE         MOSUNNY   86  57  37 S10       29.90S HX  85
STERLING*      MOSUNNY   87  58  37 VRB6      29.92S HX  86
$$

ILZ003-004-008-010-011-017-018-242200-
NORTH CENTRAL ILLINOIS

CITY           SKY/WX    TMP DP  RH WIND       PRES   REMARKS
ROCKFORD       PTSUNNY   86  56  35 SW10G18   29.93F HX  85
FREEPORT*      PTSUNNY   81  59  45 SW10G20   29.94S HX  81
ROCHELLE*      PTSUNNY   86  55  34 S12G23    29.94S HX  84
$$

ILZ005-006-012>014-019>023-242200-
NORTHEAST ILLINOIS

CITY           SKY/WX    TMP DP  RH WIND       PRES   REMARKS
CHICAGO-OHARE  PTSUNNY   85  48  27 SW14G28   29.93F HX  82
CHICAGO-MIDWAY PTSUNNY   88  46  23 SW17G25   29.93F HX  85
AURORA         SUNNY     87  52  29 SW13      29.94F HX  85
LANSING*       MOSUNNY   84  47  28 SW12G23   29.95F HX  82
WAUKEGAN       MOSUNNY   84  53  34 SW14      29.93S HX  82
DUPAGE AIRPORT SUNNY     87  48  25 SW15      29.93F HX  84
WHEELING       MOSUNNY   86  49  27 S10       29.94F HX  83
NORTHERLY ISL    N/A     86  41  20 SW10        N/A  HX  83
NORTHERLY ISL    N/A     86  41  20 SW10        N/A  HX  83
$$

LMZ740>746-242200-
SOUTHERN LAKE MICHIGAN

STATION/POSITION SKY/WX   TEMP    WIND        PRES    VSBY  WAVE
                          AIR SEA DIR/SP/G                  HT/PER
                          (F)     (DEG/KT/KT) (MB)    (MI)  (FT/S)
SOUTHERN BUOY              56 48  150/ 10/ 12 1014.4          1
WILMETTE HARBOR               56  220/  8/ 12   N/A           1/ 2
HARRISON CRIB              83     200/ 11/ 13   N/A
BURNHAM HARBOR             86     190/  8/ 16   N/A
CALUMET HARBOR             86     230/  8/ 15 1013.6F
BURNS HARBOR               84     190/ 16/ 19 1014.6F
MICHIGAN CITY              81     190/ 15/ 18   N/A
MICHIGAN CITY 6N           74 61  220/ 10/ 14   N/A           1/ 2
ST. JOSEPH                 72 68   60/  4/  4   N/A           0
$$

ILZ025>027-034>036-040-047-049-050-058-095>099-242200-
WEST-CENTRAL ILLINOIS

CITY           SKY/WX    TMP DP  RH WIND       PRES   REMARKS
QUINCY         CLOUDY    79  62  56 S14G21    29.94F HX  80
MACOMB*        CLOUDY    84  58  42 SW14      29.96F HX  83
PITTSFIELD*    CLOUDY    81  66  59 S10       29.96F HX  83
$$

ILZ028>032-037-038-041>044-048-051>054-059>061-242200-
CENTRAL ILLINOIS

CITY           SKY/WX    TMP DP  RH WIND       PRES   REMARKS
BLOOMINGTON    MOSUNNY   85  60  42 S17       29.98F HX  85
DECATUR        SUNNY     83  59  44 S15G23    29.98F HX  83
PEORIA         MOSUNNY   84  58  40 S16       29.93F HX  83
SPRINGFIELD    PTSUNNY   84  60  44 S15       29.96S HX  84
TAYLORVILLE    NOT AVBL
$$

ILZ033-039-045-046-055>057-062-063-242200-
EAST-CENTRAL ILLINOIS

CITY           SKY/WX    TMP DP  RH WIND       PRES   REMARKS
CHAMPAIGN      SUNNY     86  53  32 SW24      30.00R HX  84
RANTOUL*       MOSUNNY   87  53  31 S21       29.99R HX  84
MATTOON        SUNNY     80  55  42 S9G18     30.01F HX  80
$$

ILZ079-100>102-242200-
SOUTHWEST ILLINOIS

CITY           SKY/WX    TMP DP  RH WIND       PRES   REMARKS
CAHOKIA*       CLOUDY    79  66  64 SW7       29.98S HX  81
SPARTA*        CLOUDY    77  66  69 S8        30.02S
$$

ILZ064>066-069>071-074>076-080>082-084>086-088>090-092>094-242200-
SOUTH-CENTRAL ILLINOIS

CITY           SKY/WX    TMP DP  RH WIND       PRES   REMARKS
CARBONDALE     MOSUNNY   81  61  50 SW17G25   30.02F HX  82
MARION         PTSUNNY   82  63  51 S16       30.04S HX  83
MT. VERNON     CLOUDY    79  63  57 S9        30.04F HX  80
SALEM*         CLOUDY    80  61  52 S10       30.01F HX  81
$$

ILZ067-068-072-073-078-083-087-091-242200-
SOUTHEAST ILLINOIS

CITY           SKY/WX    TMP DP  RH WIND       PRES   REMARKS
LAWRENCEVILLE  PTSUNNY   82  55  39 SW14      30.04S HX  81
FLORA*         MOSUNNY   83  59  43 S15G24    30.03S HX  83
HARRISBURG*    CLOUDY    81  63  54 SW10      30.04S HX  82
ROBINSON*      MOSUNNY   81  58  46 S14       30.05R HX  81
$$

ABBREVIATIONS USED IN REMARKS
   TC - TEMPERATURE IN CELSIUS
  WCI - WIND CHILL INDEX
   HX - HEAT INDEX
  VSB - VISIBILITY
$$





USA.gov is the U.S. government's official web portal to all federal, state and local government web resources and services.